Location: Quedlinburg
(51.7921°N, 11.1414°E)
Time: 13:04:39
(UTC+02:00)

RS-15 - Pass Details

Date: 17 March 2026
Orbit: 1893 x 2152 km, 64.8° (Epoch: 22 April)

Event Time Altitude Azimuth Distance (km) Brightness Sun altitude
Rises 21:39:36 0° 235° (SW) 5,268 10.5 -28.8°
Reaches altitude 10° 21:42:51 10° 238° (WSW) 4,279 10.0 -29.2°
Maximum altitude 21:53:44 68° 322° (NW) 2,048 8.2 -30.4°
Drops below altitude 10° 22:05:06 10° 46° (NE) 4,439 9.9 -31.6°
Sets 22:08:34 0° 49° (NE) 5,474 10.4 -31.9°
